Location: El Coyote
(32.3706°N, 116.9434°W)
Time: 22:02:00
(UTC+00:00)

Daily predictions for brighter satellites

Satellite Brightness Start Highest point End
(mag) Time Altitude Azimuth Time Altitude Azimuth Time Altitude Azimuth
Cosmos 1805 Rocket 4.1 12:00:34 10° S 12:04:50 62° E 12:09:09 10° NNE
CZ-3B R/B 4.3 12:06:48 10° N 12:08:01 13° NE 12:09:12 10° ENE
PSLV R/B 3.6 12:05:41 10° N 12:10:00 67° WNW 12:14:20 10° SSW
Nadezhda 2 Rocket 4.5 12:04:10 10° S 12:10:16 86° W 12:16:24 10° N
Cosmos 1484 Rocket 2.7 12:06:45 10° NNE 12:10:27 86° E 12:14:08 10° S
BREEZE-M DEB (TANK) 3.5 12:08:25 10° WSW 12:12:28 38° NW 12:15:09 10° NE
Lacrosse 4 Rocket 2.1 12:11:04 10° NW 12:14:36 30° WSW 12:18:07 10° S
Cosmos 1656 4.4 12:12:08 10° NNW 12:17:48 62° ENE 12:23:23 10° SSE
ATLAS 3B CENTAUR R/B 4.0 12:11:05 10° W 12:28:12 69° S 12:36:19 10° ESE
